Weather History for Pampa, TX

Change the Weather History Date:

Saturday, October 8, 2011

  Actual Average Record
Temperature  
Mean Temperature 60 °F -  
Max Temperature 69 °F 72 °F 95 °F (1979)
Min Temperature 50 °F 47 °F 30 °F (1970)
Degree Days  
Heating Degree Days 6    
Growing Degree Days 10 (Base 50)    
Moisture  
Dew Point 49 °F    
Average Humidity 76    
Maximum Humidity 94    
Minimum Humidity 55    
Precipitation  
Precipitation 0.00 in - - ()
Sea Level Pressure  
Sea Level Pressure 29.95 in    
Wind  
Wind Speed 17 mph (South)    
Max Wind Speed 32 mph    
Max Gust Speed 40 mph    
Visibility 10 miles    
Events Rain , Thunderstorm    
Averages and records for this station are not official NWS values.
T = Trace of Precipitation, MM = Missing Value Source: NWS Daily Summary

Daily Weather History Graph

Daily Weather History Graph

Search for Another Location

Airport:

Trip Planner

Search our weather history database for the weather conditions in past years. The results will help you decide how hot, cold, wet, or windy it might be!

Date:

Astronomy

Oct. 08, 2011 Rise Set
Actual Time 7:44 AM CDT 7:18 PM CDT
Civil Twilight 7:18 AM CDT 7:43 PM CDT
Nautical Twilight 6:49 AM CDT 8:13 PM CDT
Astronomical Twilight 6:19 AM CDT 8:42 PM CDT
Moon 5:25 PM CDT (10/8) 4:39 AM CDT (10/8)
Length of Visible Light 12h 24m
Length of Day
11h 33m
Waxing Gibbous, 90% of the Moon is Illuminated
Oct 8
Waxing Gibbous
Oct 11
Full
Oct 19
Last Quarter
Oct 26
New
Nov 2
First Quarter

Hourly Weather History & Observations

Time (CDT) Temp. Dew Point Humidity Pressure Visibility Wind Dir Wind Speed Gust Speed Precip Events Conditions
12:15 AM 69.8 °F 57.2 °F 64% 29.85 in 10.0 mi SE 25.3 mph 32.2 mph N/A   Scattered Clouds
12:35 AM 69.8 °F 55.4 °F 60% 29.85 in 10.0 mi SE 26.5 mph 32.2 mph N/A   Mostly Cloudy
1:15 AM 69.8 °F 55.4 °F 60% 29.85 in 10.0 mi SSE 26.5 mph 34.5 mph N/A   Scattered Clouds
1:35 AM 69.8 °F 55.4 °F 60% 29.84 in 10.0 mi SSE 32.2 mph 40.3 mph N/A   Clear
2:15 AM 69.8 °F 59.0 °F 68% 29.83 in 10.0 mi SSE 28.8 mph 39.1 mph N/A   Clear
2:35 AM 69.8 °F 59.0 °F 68% 29.83 in 10.0 mi SSE 27.6 mph 40.3 mph N/A   Clear
2:55 AM 69.8 °F 59.0 °F 68% 29.82 in 10.0 mi SSE 31.1 mph 40.3 mph N/A   Mostly Cloudy
3:35 AM 69.8 °F 59.0 °F 68% 29.84 in 10.0 mi SSE 28.8 mph 39.1 mph N/A   Overcast
3:55 AM 68.0 °F 59.0 °F 73% 29.85 in 10.0 mi SSE 26.5 mph 34.5 mph N/A   Overcast
4:15 AM 68.0 °F 59.0 °F 73% 29.85 in 10.0 mi SSE 31.1 mph 36.8 mph N/A   Overcast
4:35 AM 66.2 °F 60.8 °F 83% 29.87 in 10.0 mi South 28.8 mph 36.8 mph N/A Rain Light Rain
4:55 AM 55.4 °F 51.8 °F 88% 29.92 in 3.0 mi West 16.1 mph 28.8 mph N/A Rain Heavy Rain
5:15 AM 51.8 °F 50.0 °F 94% 29.92 in 3.0 mi WSW 13.8 mph 26.5 mph N/A Rain , Thunderstorm Heavy Thunderstorms and Rain
5:35 AM 51.8 °F 50.0 °F 94% 29.94 in 5.0 mi WSW 9.2 mph - N/A Rain , Thunderstorm Heavy Thunderstorms and Rain
5:55 AM 51.8 °F 48.2 °F 88% 29.91 in 10.0 mi WSW 8.1 mph - N/A Rain Rain
6:15 AM 51.8 °F 46.4 °F 82% 29.94 in 10.0 mi South 8.1 mph - N/A Rain , Thunderstorm Light Thunderstorms and Rain
6:35 AM 51.8 °F 48.2 °F 88% 29.94 in 10.0 mi South 6.9 mph - N/A Rain Rain
6:55 AM 51.8 °F 48.2 °F 88% 29.89 in 10.0 mi East 5.8 mph - N/A Rain Light Rain
7:15 AM 51.8 °F 46.4 °F 82% 29.89 in 10.0 mi SE 5.8 mph - N/A Rain , Thunderstorm Light Thunderstorms and Rain
7:35 AM 51.8 °F 46.4 °F 82% 29.94 in 10.0 mi South 6.9 mph - N/A Rain Light Rain
7:55 AM 51.8 °F 48.2 °F 88% 29.94 in 10.0 mi South 5.8 mph - N/A Thunderstorm Thunderstorm
8:15 AM 51.8 °F 48.2 °F 88% 29.95 in 10.0 mi SSE 12.7 mph - N/A   Overcast
8:35 AM 51.8 °F 46.4 °F 82% 29.95 in 10.0 mi SSE 9.2 mph - N/A   Mostly Cloudy
8:55 AM 51.8 °F 46.4 °F 82% 29.95 in 10.0 mi SSE 9.2 mph - N/A   Mostly Cloudy
9:15 AM 51.8 °F 46.4 °F 82% 29.93 in 10.0 mi South 3.5 mph - N/A   Mostly Cloudy
9:35 AM 51.8 °F 46.4 °F 82% 29.94 in 10.0 mi South 8.1 mph - N/A   Scattered Clouds
9:55 AM 51.8 °F 46.4 °F 82% 29.96 in 10.0 mi South 6.9 mph - N/A   Clear
10:15 AM 51.8 °F 48.2 °F 88% 29.99 in 10.0 mi SSE 10.4 mph - N/A   Clear
10:35 AM 51.8 °F 48.2 °F 88% 29.98 in 10.0 mi SSE 9.2 mph - N/A   Scattered Clouds
11:15 AM 53.6 °F 48.2 °F 82% 30.00 in 10.0 mi South 9.2 mph - N/A   Scattered Clouds
11:35 AM 53.6 °F 46.4 °F 77% 30.00 in 10.0 mi South 12.7 mph 17.3 mph N/A   Scattered Clouds
11:55 AM 53.6 °F 48.2 °F 82% 29.99 in 10.0 mi South 12.7 mph - N/A   Clear
12:15 PM 53.6 °F 48.2 °F 82% 29.99 in 10.0 mi SSW 11.5 mph - N/A   Clear
12:35 PM 53.6 °F 46.4 °F 77% 29.99 in 10.0 mi SSW 13.8 mph - N/A   Clear
12:55 PM 55.4 °F 44.6 °F 67% 29.97 in 10.0 mi SW 13.8 mph - N/A   Clear
1:15 PM 57.2 °F 44.6 °F 63% 29.97 in 10.0 mi SSW 13.8 mph - N/A   Clear
1:35 PM 59.0 °F 44.6 °F 59% 29.97 in 10.0 mi WSW 10.4 mph - N/A   Clear
1:55 PM 59.0 °F 42.8 °F 55% 29.97 in 10.0 mi SW 11.5 mph - N/A   Clear
2:15 PM 59.0 °F 42.8 °F 55% 29.97 in 10.0 mi SSW 11.5 mph - N/A   Clear
2:35 PM 59.0 °F 42.8 °F 55% 29.97 in 10.0 mi SSW 10.4 mph - N/A   Clear
2:55 PM 59.0 °F 42.8 °F 55% 29.97 in 10.0 mi SSW 9.2 mph - N/A   Clear
3:15 PM 59.0 °F 42.8 °F 55% 29.96 in 10.0 mi South 11.5 mph - N/A   Clear
3:35 PM 57.2 °F 44.6 °F 63% 29.96 in 10.0 mi South 6.9 mph - N/A   Clear
3:55 PM 57.2 °F 44.6 °F 63% 29.96 in 10.0 mi South 8.1 mph - N/A   Clear
4:15 PM 57.2 °F 46.4 °F 67% 29.97 in 10.0 mi South 9.2 mph - N/A   Clear
4:35 PM 57.2 °F 46.4 °F 67% 29.98 in 10.0 mi SSE 8.1 mph - N/A   Clear
4:55 PM 55.4 °F 46.4 °F 72% 29.99 in 10.0 mi SSE 9.2 mph - N/A   Clear
5:15 PM 55.4 °F 50.0 °F 82% 29.98 in 10.0 mi SE 12.7 mph - N/A   Clear
5:35 PM 55.4 °F 50.0 °F 82% 29.99 in 10.0 mi SE 10.4 mph - N/A   Clear
5:55 PM 53.6 °F 48.2 °F 82% 29.99 in 10.0 mi SE 11.5 mph - N/A   Clear
6:15 PM 53.6 °F 46.4 °F 77% 30.00 in 10.0 mi SE 11.5 mph - N/A   Clear
6:35 PM 53.6 °F 46.4 °F 77% 30.00 in 10.0 mi SSE 9.2 mph - N/A   Clear
6:55 PM 51.8 °F 46.4 °F 82% 30.00 in 10.0 mi SE 10.4 mph - N/A   Clear
7:15 PM 51.8 °F 46.4 °F 82% 30.00 in 10.0 mi SE 10.4 mph - N/A   Clear
7:35 PM 50.0 °F 46.4 °F 87% 30.02 in 10.0 mi SE 8.1 mph - N/A   Clear
7:55 PM 50.0 °F 46.4 °F 87% 30.03 in 10.0 mi SE 6.9 mph - N/A   Clear
8:15 PM 50.0 °F 46.4 °F 87% 30.03 in 10.0 mi SE 6.9 mph - N/A   Clear
8:35 PM 50.0 °F 46.4 °F 87% 30.03 in 10.0 mi SE 6.9 mph - N/A   Clear
8:55 PM 50.0 °F 44.6 °F 82% 30.03 in 10.0 mi SE 8.1 mph - N/A   Clear
9:15 PM 50.0 °F 44.6 °F 82% 30.06 in 10.0 mi SE 9.2 mph - N/A   Clear
9:35 PM 50.0 °F 44.6 °F 82% 30.07 in 10.0 mi SE 8.1 mph - N/A   Clear
9:55 PM 50.0 °F 44.6 °F 82% 30.07 in 10.0 mi SE 6.9 mph - N/A   Clear
10:15 PM 50.0 °F 44.6 °F 82% 30.08 in 10.0 mi SSE 4.6 mph - N/A   Clear
10:35 PM 50.0 °F 46.4 °F 87% 30.08 in 10.0 mi ESE 5.8 mph - N/A   Clear
10:55 PM 50.0 °F 46.4 °F 87% 30.09 in 10.0 mi SE 4.6 mph - N/A   Clear
11:15 PM 50.0 °F 46.4 °F 87% 30.10 in 10.0 mi ESE 3.5 mph - N/A   Scattered Clouds
11:35 PM 50.0 °F 48.2 °F 94% 30.12 in 10.0 mi NW 3.5 mph - N/A   Overcast
11:55 PM 51.8 °F 50.0 °F 94% 30.10 in 10.0 mi North 3.5 mph - N/A   Overcast